Norwood, MA

1:03 AM EDT on March 27, 2017 (GMT -0400)
Norwood Memorial

Weather History for KOWD - August, 2014

Change the Weather History Date:

Friday, August 1, 2014

  Actual Average Record
Temperature  
Mean Temperature 70 °F -  
Max Temperature 84 °F 80 °F 93 °F (1999)
Min Temperature 57 °F 58 °F 48 °F (2010)
Cooling Degree Days 6    
Growing Degree Days 20 (Base 50)    
Moisture  
Dew Point 61 °F    
Average Humidity 83    
Maximum Humidity 100    
Minimum Humidity 53    
Precipitation  
Precipitation 0.00 in - - ()
Sea Level Pressure  
Sea Level Pressure 30.20 in    
Wind  
Wind Speed 3 mph (South)    
Max Wind Speed 16 mph    
Max Gust Speed 22 mph    
Visibility 7 miles    
Events Fog    
Averages and records for this station are not official NWS values.
T = Trace of Precipitation, MM = Missing Value Source: NWS Daily Summary

Daily Weather History Graph

Daily Weather History Graph

Search for Another Location

Airport or City:

Trip Planner

Search our weather history database for the weather conditions in past years. The results will help you decide how hot, cold, wet, or windy it might be!

Date:

Astronomy

Aug. 01, 2014 Rise Set
Actual Time 5:37 AM EDT 8:03 PM EDT
Civil Twilight 5:05 AM EDT 8:35 PM EDT
Nautical Twilight 4:26 AM EDT 9:14 PM EDT
Astronomical Twilight 3:42 AM EDT 9:58 PM EDT
Moon 11:05 AM EDT (8/1) 10:39 PM EDT (8/1)
Length of Visible Light 15h 29m
Length of Day
14h 26m
Waxing Crescent, 27% of the Moon is Illuminated
Aug 1
Waxing Crescent
Aug 3
First Quarter
Aug 10
Full
Aug 17
Last Quarter
Aug 25
New

Hourly Weather History & Observations

Time (EDT) Temp. Heat Index Dew Point Humidity Pressure Visibility Wind Dir Wind Speed Gust Speed Precip Events Conditions
12:53 AM 63.0 °F - 60.1 °F 90% 30.17 in 10.0 mi South 4.6 mph - N/A   Clear
1:53 AM 62.1 °F - 60.1 °F 93% 30.17 in 10.0 mi SSE 3.5 mph - N/A   Clear
2:53 AM 60.1 °F - 59.0 °F 96% 30.17 in 7.0 mi Calm Calm - N/A   Clear
3:53 AM 61.0 °F - 59.0 °F 93% 30.18 in 9.0 mi Calm Calm - N/A   Clear
4:53 AM 60.1 °F - 57.9 °F 93% 30.19 in 7.0 mi Calm Calm - N/A   Clear
5:12 AM 57.9 °F - 57.0 °F 97% 30.19 in 1.0 mi Calm Calm - N/A   Mist
5:17 AM 57.9 °F - 57.0 °F 97% 30.19 in 0.5 mi Calm Calm - N/A Fog Fog
5:29 AM 59.0 °F - 57.9 °F 96% 30.19 in 1.5 mi Calm Calm - N/A   Scattered Clouds
5:39 AM 57.9 °F - 57.0 °F 97% 30.19 in 4.0 mi Calm Calm - N/A   Scattered Clouds
5:50 AM 57.2 °F - 57.2 °F 100% 30.19 in 1.0 mi Calm Calm - N/A   Mist
5:53 AM 57.9 °F - 57.0 °F 97% 30.19 in 0.8 mi Calm Calm - N/A   Mist
6:00 AM 57.9 °F - 57.0 °F 97% 30.20 in 2.0 mi Calm Calm - N/A   Mostly Cloudy
6:06 AM 57.0 °F - 57.0 °F 100% 30.20 in 0.8 mi Calm Calm - N/A   Mostly Cloudy
6:18 AM 59.0 °F - 57.0 °F 93% 30.19 in 2.0 mi Calm Calm - N/A   Overcast
6:25 AM 60.1 °F - 59.0 °F 96% 30.20 in 7.0 mi Calm Calm - N/A   Overcast
6:41 AM 62.1 °F - 61.0 °F 96% 30.20 in 8.0 mi Calm Calm - N/A   Overcast
6:53 AM 63.0 °F - 61.0 °F 93% 30.20 in 7.0 mi Calm Calm - N/A   Mostly Cloudy
7:53 AM 69.1 °F - 64.9 °F 87% 30.21 in 10.0 mi Calm Calm - N/A   Clear
8:53 AM 72.0 °F - 66.0 °F 81% 30.21 in 9.0 mi West 4.6 mph - N/A   Clear
9:53 AM 75.9 °F - 66.0 °F 71% 30.21 in 10.0 mi Calm Calm - N/A   Clear
10:53 AM 80.1 °F 82.1 °F 66.0 °F 62% 30.22 in 10.0 mi Variable 3.5 mph - N/A   Clear
11:53 AM 82.0 °F 83.4 °F 64.0 °F 54% 30.21 in 10.0 mi SSE 4.6 mph - N/A   Clear
12:53 PM 82.9 °F 84.4 °F 64.0 °F 53% 30.20 in 10.0 mi South 8.1 mph - N/A   Partly Cloudy
2:53 PM 84.0 °F 85.8 °F 64.9 °F 53% 30.18 in 10.0 mi SSE 11.5 mph - N/A   Scattered Clouds
3:53 PM 82.9 °F 84.4 °F 64.0 °F 53% 30.18 in 10.0 mi SSW 11.5 mph - N/A   Partly Cloudy
4:53 PM 80.1 °F 81.7 °F 64.0 °F 58% 30.19 in 10.0 mi South 16.1 mph 21.9 mph N/A   Partly Cloudy
6:53 PM 75.0 °F - 64.0 °F 69% 30.22 in 10.0 mi South 8.1 mph - N/A   Clear
7:53 PM 73.9 °F - 64.0 °F 71% 30.23 in 10.0 mi South 6.9 mph - N/A   Partly Cloudy
8:53 PM 71.1 °F - 63.0 °F 75% 30.22 in 10.0 mi South 4.6 mph - N/A   Clear
9:53 PM 69.1 °F - 64.0 °F 84% 30.22 in 10.0 mi South 4.6 mph - N/A   Clear
10:53 PM 70.0 °F - 64.0 °F 81% 30.22 in 10.0 mi Calm Calm - N/A   Clear
11:53 PM 68.0 °F - 64.0 °F 87% 30.22 in 10.0 mi Calm Calm - N/A   Partly Cloudy